Regional Weather Roundup
Issued by NWS

Home | Current Version | Previous Version | Graphics & Text | Print | Product List | Glossary On
Versions: 1 2 3 4 5 6 7 8 9 10 11 12 13 14 15 16 17 18 19 20 21 22 23 24 25 26 27 28 29 30 31 32 33 34 35 36 37 38 39 40 41 42 43 44 45 46 47 48 49 50
209
ASUS43 KMKX 301511
RWRWI

WISCONSIN REGIONAL WEATHER ROUNDUP
NATIONAL WEATHER SERVICE MILWAUKEE/SULLIVAN WI
1000 AM CDT SUN APR 30 2017

NOTE: "FAIR" INDICATES FEW OR NO CLOUDS BELOW 12,000 FEET WITH NO
SIGNIFICANT WEATHER AND/OR OBSTRUCTIONS TO VISIBILITY.

WIZ001-002-006>008-014>016-023>028-301600-
NORTHWEST WISCONSIN

CITY           SKY/WX    TMP DP  RH WIND       PRES   REMARKS
SUPERIOR ARPT  CLOUDY    39  31  71 NE15G21   30.15R WCI  31
ASHLAND        CLOUDY    41  31  67 N12       30.13R
HAYWARD        CLOUDY    43  25  49 NE8       30.08R
SIREN          CLOUDY    42  24  49 NE8       30.08S
CUMBERLAND     CLOUDY    43  27  52 NE12      30.03F
RICE LAKE      DRIZZLE   44  26  49 NE10      30.05F
CHETEK         CLOUDY    43  28  56 NE6       30.03S
LADYSMITH      CLOUDY    45  28  51 E10G18    30.05S
EAU CLAIRE     CLOUDY    44  30  57 E15       30.01S
MENOMONIE      DRIZZLE   43  29  57 NE7       30.02R
NEW RICHMOND   LGT RAIN  41  31  67 NE9       30.03S
OSCEOLA        CLOUDY    45  28  51 NE9       30.06F
$$

WIZ003>005-009-010-017-018-301600-
NORTH CENTRAL WISCONSIN

CITY           SKY/WX    TMP DP  RH WIND       PRES   REMARKS
MANITOWISH WTR CLOUDY    45  26  47 E15G21    30.05S
ARBOR VITAE    PTSUNNY   45  27  49 E15G21    30.06R
WOODRUFF       PTSUNNY   45  27  49 E15G21    30.06R
RHINELANDER    CLOUDY    44  29  55 E14G23    30.06R
EAGLE RIVER    PTSUNNY   44  26  48 E14       30.06F
LAND O LAKES   MOSUNNY   47  26  43 SE12G20   30.07F
PHILLIPS       CLOUDY    44  28  52 E12       30.04R
TOMAHAWK       CLOUDY    43  30  61 E8        30.04S
MEDFORD        CLOUDY    42  32  68 E17       30.00S
MERRILL        CLOUDY    42  32  67 E9G20     30.04S
$$

WIZ029-030-035-036-043>047-301600-
CENTRAL WISCONSIN

CITY           SKY/WX    TMP DP  RH WIND       PRES   REMARKS
WAUSAU         CLOUDY    43  33  68 E18       30.00F
MOSINEE        CLOUDY    43  34  70 E18G28    30.01S
MARSHFIELD     CLOUDY    42  34  73 E12G25    29.98F
STEVENS POINT  CLOUDY    39  35  86 E17G26    30.00S WCI  30
WAUPACA        CLOUDY    42  39  91 NE9G22    30.00F FOG
WAUTOMA        CLOUDY    41  38  89 MISG        N/A  FOG
WISC RAPIDS    CLOUDY    42  36  79 E20G26    29.97F
CAMP DOUGLAS   CLOUDY    41  37  87 NE12      29.98R
$$

WIZ011>013-019>022-031-037>040-048>050-301600-
NORTHEAST WISCONSIN

CITY           SKY/WX    TMP DP  RH WIND       PRES   REMARKS
ANTIGO         CLOUDY    41  32  70 E24       30.03F
SHAWANO        LGT RAIN  42  38  88 NE16G23   30.04F
OCONTO         NOT AVBL
STURGEON BAY   LGT RAIN  38  36  92 NE15G23   30.06F FOG     WCI  29
GREEN BAY      CLOUDY    41  40  96 NE17      30.01F FOG
MANITOWOC      CLOUDY    39  37  92 NE9       29.99F WCI  33
APPLETON       LGT RAIN  39  37  93 NE20G30   29.97F FOG     WCI  30
CLINTONVILLE   CLOUDY    39  37  93 E12G28    30.02F FOG     WCI  32
OSHKOSH        CLOUDY    41  37  86 NE21G28   29.96F
$$

WIZ032>034-041-042-053>061-301600-
SOUTHWEST WISCONSIN

CITY           SKY/WX    TMP DP  RH WIND       PRES   REMARKS
LA CROSSE      CLOUDY    45  34  65 E12       29.96S
SPARTA         CLOUDY    42  36  79 E15G22    29.98R
VIROQUA        CLOUDY    40  36  86 E17       29.94R WCI  31
BOSCOBEL       CLOUDY    43  39  86 NE7       29.93R
PRAIRIE DU CHI CLOUDY    42  37  81 NE9       29.92R
PLATTEVILLE    CLOUDY    42  41  97 NE17G23   29.87S
$$

WIZ056-057-062-063-064-067-068-301600-
SOUTH CENTRAL WISCONSIN

CITY           SKY/WX    TMP DP  RH WIND       PRES   REMARKS
REEDSBURG      CLOUDY    39  39 100 E10G18    29.94S FOG     WCI  32
BARABOO/DELLS  CLOUDY    40  38  95 NE13G24   29.94R FOG     WCI  32
LONE ROCK      CLOUDY    42  39  89 NE14      29.93R FOG
MINERAL POINT  CLOUDY    41  41 100 NE12G24   29.89R
MADISON        DRIZZLE   41  39  93 NE14      29.91R FOG
MIDDLETON      CLOUDY    42  42  99 NE13G18   29.91R
WATERTOWN      CLOUDY    41  41 100 NE13G20   29.89F FOG
MONROE         CLOUDY    41  39  93 NE15G24   29.86R
JANESVILLE     CLOUDY    43  43 100 E14G20    29.85F FOG
$$

WIZ051-052-058>065-066-070>072-301600-
SOUTHEAST WISCONSIN

CITY           SKY/WX    TMP DP  RH WIND       PRES   REMARKS
MILWAUKEE      LGT RAIN  42  42 100 NE18      29.87F VSB 1
WAUKESHA       LGT RAIN  39  37  93 NE17G23   29.89R VSB 1   WCI  30
MILWAUKEE/TIMM DRIZZLE   39  37  93 NE12G17   29.89F WCI  32
RACINE         LGT RAIN  42  40  92 NE15G24   29.88S FOG
KENOSHA        LGT RAIN  42  40  92 NE17      29.85S VSB 1
FOND DU LAC    CLOUDY    41  37  86 NE17G26   29.94F
SHEBOYGAN      LGT RAIN  40  38  93 NE20G26   29.94F FOG     WCI  30
WEST BEND      LGT RAIN  39  39 100 NE15G23   29.92R WCI  31
JUNEAU         CLOUDY    40  38  95 NE14G24   29.92F FOG     WCI  32
$$

LSZ147-162-301600-
LAKE SUPERIOR

STATION/POSITION TIME  TEMP    WIND        PRES    WAVE
                       AIR SEA DIR/SP/G            HT/PER
                 (UTC) (F)     (DEG/KT/KT) (MB)    (FT/S)
DEVILS ISLAND    1500   37      60/ 20/ 22 1021.5F
PORT WING        1240   38      40/ 12/ 15 1021.7
SAXON HARBOR     1430   38      50/ 11/ 13 1019.0F
$$

LMZ867-665-643>646-301600-
LAKE MICHIGAN

STATION/POSITION TIME  TEMP    WIND        PRES    WAVE
                       AIR SEA DIR/SP/G            HT/PER
                 (UTC) (F)     (DEG/KT/KT) (MB)    (FT/S)
CHAMBERS ISLAND  1440   38      50/ 17/ 22 1018.6S
N MID LAKE BUOY  1450   37 37   80/ 21/ 25 1019.9F   5/ 5
NORTHPORT PIER   1435   38      70/ 21/ 26 1019.3S
KEWAUNEE LAKESHO 1448   39      40/ 17/ 22 1016.2F
SHEBOYGAN LAKESH 1500   39      30/ 20/ 22 1014.4F
PORT WASHINGTON  1430   41      40/ 17/ 22 1013.9F
MILWAUKEE LAKESH 1450   41      50/ 17/ 19   N/A
S MID LAKE BUOY  1350   41 40   50/ 17/ 19 1011.9F   4/ 5
KENOSHA   LAKESH 1500   41      50/ 16/ 22 1010.8
$$

TC  - TEMPERATURE IN CELSIUS
VSB - VISIBILITY IN STATUTE MILES
WCI - WIND CHILL INDEX
HX  - HEAT INDEX





USA.gov is the U.S. government's official web portal to all federal, state and local government web resources and services.